CW9879 Weather Reports


time (UTC)temp
F
wind
direction
speed
knots
gust
knots
rain 1hr
in
rain 24hr
in
rain mn
in
humidity
%
barometer
mb
20260504231528 74 140 0.0 2.6 0.00 0.00 0.00 39 1011.1
20260504230017 75 66 0.0 7.8 0.00 0.00 0.00 39 1011.0
20260504224520 75 62 0.0 6.1 0.00 0.00 0.00 38 1011.0
20260504223022 75 84 0.0 4.3 0.00 0.00 0.00 38 1010.9
20260504221509 75 213 0.0 5.2 0.00 0.00 0.00 38 1011.0
20260504220011 76 270 0.9 5.2 0.00 0.00 0.00 37 1011.2
20260504214524 76 216 0.9 4.3 0.00 0.00 0.00 36 1011.1
20260504213029 77 315 0.9 4.3 0.00 0.00 0.00 37 1011.0
20260504211526 77 221 0.0 4.3 0.00 0.00 0.00 38 1011.0
20260504210013 76 246 0.0 5.2 0.00 0.00 0.00 36 1011.1
20260504204542 76 178 0.9 7.0 0.00 0.00 0.00 36 1011.2
20260504203024 76 223 0.0 2.6 0.00 0.00 0.00 35 1011.0
20260504201525 76 221 0.0 6.1 0.00 0.00 0.00 37 1011.3
20260504200030 75 149 0.9 3.5 0.00 0.00 0.00 36 1011.5
20260504194512 75 309 0.9 4.3 0.00 0.00 0.00 37 1011.6
20260504193023 74 84 0.0 5.2 0.00 0.00 0.00 36 1011.8
20260504191521 75 317 0.0 3.5 0.00 0.00 0.00 38 1011.9
20260504190033 77 197 0.9 5.2 0.00 0.00 0.00 33 1012.1
20260504184526 78 107 0.9 3.5 0.00 0.00 0.00 33 1012.3
20260504183018 78 202 0.9 5.2 0.00 0.00 0.00 33 1012.4
20260504181504 78 101 0.9 6.1 0.00 0.00 0.00 32 1012.9
20260504180004 78 171 0.9 5.2 0.00 0.00 0.00 31 1013.1
20260504174509 78 294 0.9 3.5 0.00 0.00 0.00 31 1013.2
20260504173013 77 328 0.0 5.2 0.00 0.00 0.00 34 1013.3
20260504171534 76 206 0.0 4.3 0.00 0.00 0.00 33 1013.5
20260504081527 46 256 0.0 0.0 0.00 0.00 0.00 81 1016.3
20260504050016 45 256 0.0 0.0 0.00 0.00 0.00 82 1016.3
20260504044526 45 256 0.0 0.0 0.00 0.00 0.00 82 1016.1
20260504043026 45 256 0.0 0.0 0.00 0.00 0.00 83 1016.1
20260504041530 45 256 0.0 0.0 0.00 0.00 0.00 82 1016.0
20260504040017 44 256 0.0 0.0 0.00 0.00 0.00 82 1016.1
20260504034520 44 256 0.0 0.0 0.00 0.00 0.00 81 1016.2
20260504033004 44 256 0.0 0.0 0.00 0.00 0.00 80 1016.0
20260504031504 45 256 0.0 0.0 0.00 0.00 0.00 77 1015.9
20260504030008 45 256 0.0 0.0 0.00 0.00 0.00 76 1016.0
20260504024516 46 256 0.0 0.0 0.00 0.00 0.00 76 1015.8
20260504023004 46 256 0.0 0.0 0.00 0.00 0.00 74 1015.9
20260504021504 47 256 0.0 0.0 0.00 0.00 0.00 71 1015.9
20260504020012 47 256 0.0 0.0 0.00 0.00 0.00 69 1015.8
20260504014515 48 256 0.0 0.0 0.00 0.00 0.00 68 1015.8
20260504013016 49 256 0.0 0.0 0.00 0.00 0.00 65 1015.9
20260504011504 50 256 0.0 0.0 0.00 0.00 0.00 64 1015.6
20260504010005 51 256 0.0 0.0 0.00 0.00 0.00 62 1015.6
20260504004510 52 256 0.0 0.0 0.00 0.00 0.00 60 1015.5
20260504003012 53 256 0.0 0.0 0.00 0.00 0.00 59 1015.4
20260504001518 54 256 0.0 0.0 0.00 0.00 0.00 55 1015.4
20260504000004 56 256 0.0 0.0 0.00 0.00 0.00 52 1015.3
20260503234508 58 256 0.0 0.0 0.00 0.00 0.00 50 1015.1
20260503233033 60 256 0.0 0.0 0.00 0.00 0.00 47 1015.0